Regional Weather Roundup
Issued by NWS Portland, ME

Current Version | Previous Version | Text Only | Print | Product List | Glossary On
Versions: 1 2 3 4 5 6 7 8 9 10 11 12 13 14 15 16 17 18 19 20 21 22 23 24 25 26 27 28 29 30 31 32 33 34 35 36 37 38 39 40 41 42 43 44 45 46 47 48 49 50
000
ASUS41 KGYX 170610
RWRGYX
WEATHER ROUNDUP FOR MAINE AND NEW HAMPSHIRE
NATIONAL WEATHER SERVICE GRAY ME
200 AM EDT WED SEP 17 2014

MEZ002-005-006-010-012-015-018-020-021-024-026-027-029-170700-
MAINE

CITY           SKY/WX    TMP DP  RH WIND       PRES   REMARKS
PORTLAND       CLEAR     47  45  93 SW5       29.98S
6HR MIN TEMP:  45; 6HR MAX TEMP:  54;

SANFORD        CLEAR     43  37  81 CALM      29.98S
BAR HARBOR     CLEAR     48  46  93 CALM      29.96S
WISCASSET      FOG       48  47  96 CALM      29.99S VSB 1/4
6HR MIN TEMP:  47; 6HR MAX TEMP:  52;

ROCKLAND       CLOUDY    48  48 100 W3        29.96S VSB 1/4
FRYEBURG       MOCLDY    47  46  97 CALM      29.98S
6HR MIN TEMP:  42; 6HR MAX TEMP:  50;

LEWISTONAUBURN CLOUDY    46  43  87 CALM      29.97F
AUGUSTA        FOG       49  49 100 CALM      29.97S VSB 1/4
6HR MIN TEMP:  49; 6HR MAX TEMP:  56;

WATERVILLE     CLOUDY    48  43  81 SW5       29.92R VSB 1/4
BANGOR         CLEAR     49  47  93 SW3       29.95S
6HR MIN TEMP:  46; 6HR MAX TEMP:  57;

GREENVILLE       N/A     46  43  89 CALM      29.91S
6HR MIN TEMP:  44; 6HR MAX TEMP:  50;

MILLINOCKET    PTCLDY    46  44  93 CALM      29.93S FOG
6HR MIN TEMP:  46; 6HR MAX TEMP:  52;

HOULTON        FOG       50  49  96 S8        29.89S VSB 1
6HR MIN TEMP:  48; 6HR MAX TEMP:  52;

PRESQUE ISLE   NOT AVBL
FRENCHVILLE    CLEAR     45  41  86 W9        29.83S
6HR MIN TEMP:  44; 6HR MAX TEMP:  51;

CARIBOU        CLEAR     46  44  93 SW8       29.85F
6HR MIN TEMP:  45; 6HR MAX TEMP:  51;

$$

NHZ002-005-008-009-011-012-014-170700-
NEW HAMPSHIRE

CITY           SKY/WX    TMP DP  RH WIND       PRES   REMARKS
PORTSMOUTH     PTCLDY    48  47  96 SW3       29.97S
ROCHESTER      CLEAR     46  44  93 NW5       29.98S
6HR MIN TEMP:  46; 6HR MAX TEMP:  56;

NASHUA         CLEAR     48  48 100 CALM      30.00S
MANCHESTER     FOG       51  50  96 CALM      29.98S VSB 1/4
6HR MIN TEMP:  51; 6HR MAX TEMP:  58;

CONCORD        FOG       48  48 100 CALM      30.00S VSB 1/4
6HR MIN TEMP:  48; 6HR MAX TEMP:  55;

LACONIA        CLOUDY    52  50  93 SW6       29.98S
PLYMOUTH       FOG       48  48 100 NW3       30.00S VSB 1/2
BERLIN         FOG       39  38  96 CALM      29.98F VSB 1/2
6HR MIN TEMP:  38; 6HR MAX TEMP:  50;

WHITEFIELD     CLOUDY    45  43  93 CALM      29.99S
6HR MIN TEMP:  42; 6HR MAX TEMP:  51;

JAFFREY        CLEAR     45  44  97 CALM      30.02R
6HR MIN TEMP:  45; 6HR MAX TEMP:  51;

LEBANON        FOG       49  46  90 CALM      30.00S VSB 1/4
6HR MIN TEMP:  46; 6HR MAX TEMP:  53;

MT WASHINGTON  FOG       34  34 100 W32G45      N/A  VSB 0   WCI  20
6HR MIN TEMP:  33; 6HR MAX TEMP:  35; 6HR PCP:  0.01;

$$

VTZ005-007-008-170700-
VERMONT

CITY           SKY/WX    TMP DP  RH WIND       PRES   REMARKS
ST JOHNSBURY     N/A     46  46 100 MISG      29.98S
MONTPELIER     CLEAR     42  41  96 S5        30.03R
BURLINGTON     CLEAR     48  46  93 SE3       29.99S
$$

MAZ007-012-024-CTZ003-RIZ002-NYZ038-NYZ072-170700-
SOUTHERN NEW ENGLAND AND NY

CITY           SKY/WX    TMP DP  RH WIND       PRES   REMARKS
BOSTON         PTCLDY    59  53  80 W3        29.99S
WORCESTER      CLEAR     52  48  86 W12       30.01S
NANTUCKET      PTCLDY    60  55  83 W7        29.98F
PROVIDENCE     CLEAR     53  52  96 CALM      30.00S
HARTFORD       CLEAR     50  47  89 CALM      30.02S
ALBANY         CLEAR     49  44  83 W5        30.04R
NEW YORK CITY  PTCLDY    63  51  65 NW7       30.02S
$$

ANZ081-ANZ082-ANZ150-NHZ014-MEZ023>029-170700-
COASTAL MARINE OBSERVATIONS

STATION/POSITION TIME  TEMP    WIND        PRES    WAVE
                       AIR SEA DIR/SP/G            HT/PER
                 (UTC) (F)     (DEG/KT/KT) (MB)    (FT/S)
MOUNT DESERT ROC 0500   56                 1014.2
MATINICUS ROCK   0500          260/ 13/ 13 1014.2S
PORTLAND WX BUOY 0550   56 59  300/  6/  6 1015.0S   2/13
WELLS            0500   53 59  300/  5/  8 1014.3R
ISLE OF SHOALS   0500   59     250/  6/  6 1014.7R
JEFFREYS LEDGE   0521      61                N/A     2/13
CASHES LEDGE BUO 0550   62                   N/A
$$

.............KEY..............
   WCI - WIND CHILL
   TC  - TEMPERATURE IN CELSIUS
   VSB - VISIBILITY IN MILES
   HX  - HEAT INDEX
   FAIR- INDICATES FEW OR NO CLOUDS BELOW 12,000 FT, WITH NO
         SIGNIFICANT WEATHER AND/OR OBSTRUCTIONS TO VISIBILITY.





USA.gov is the U.S. government's official web portal to all federal, state and local government web resources and services.